QPF
0.00 0.02 0.09 0.09 0.06 0.06 0.06 0.06 0.08 0.07 0.07 0.08 0.08 0.05 0.04 0.03 0.04 0.05 0.05 0.07 0.09 0.10 0.10 0.08 0.07 0.07 0.07 0.07 0.09 0.09 0.07 0.07 0.09 0.10 0.13 0.14 0.15 0.13 0.13 0.11 0.10 0.08 0.07
0.01 0.03 0.09 0.10 0.05 0.03 0.04 0.05 0.07 0.05 0.06 0.07 0.05 0.04 0.03 0.04 0.04 0.04 0.05 0.06 0.14 0.19 0.12 0.07 0.07 0.06 0.06 0.07 0.11 0.09 0.06 0.06 0.10 0.10 0.12 0.10 0.12 0.15 0.16 0.14 0.14 0.10 0.09
0.02 0.03 0.07 0.08 0.06 0.04 0.07 0.06 0.05 0.05 0.06 0.08 0.05 0.04 0.03 0.03 0.04 0.05 0.08 0.09 0.09 0.11 0.08 0.05 0.05 0.06 0.08 0.10 0.13 0.10 0.08 0.07 0.07 0.06 0.05 0.03 0.04 0.10 0.13 0.14 0.14 0.09 0.07
0.02 0.02 0.03 0.06 0.05 0.06 0.06 0.06 0.03 0.04 0.05 0.07 0.05 0.06 0.04 0.03 0.04 0.05 0.06 0.07 0.07 0.04 0.04 0.04 0.04 0.05 0.07 0.08 0.10 0.09 0.07 0.06 0.04 0.03 0.01 0.02 0.03 0.06 0.10 0.13 0.14 0.10 0.08
0.01 0.01 0.04 0.06 0.05 0.05 0.04 0.05 0.06 0.06 0.06 0.07 0.05 0.05 0.04 0.04 0.04 0.04 0.05 0.07 0.06 0.05 0.05 0.05 0.04 0.06 0.06 0.07 0.07 0.06 0.05 0.03 0.03 0.02 0.01 0.02 0.03 0.07 0.11 0.16 0.17 0.16 0.10
0.00 0.01 0.02 0.04 0.03 0.03 0.03 0.03 0.06 0.08 0.06 0.06 0.05 0.04 0.05 0.05 0.04 0.03 0.04 0.04 0.05 0.04 0.03 0.03 0.04 0.05 0.05 0.06 0.06 0.04 0.03 0.01 0.00 0.00 0.01 0.02 0.03 0.05 0.09 0.12 0.14 0.15 0.12
0.00 0.00 0.01 0.02 0.02 0.02 0.03 0.04 0.04 0.04 0.06 0.05 0.05 0.05 0.05 0.06 0.04 0.02 0.03 0.04 0.05 0.04 0.03 0.02 0.02 0.03 0.04 0.04 0.04 0.04 0.02 0.01 0.00 0.00 0.01 0.01 0.02 0.06 0.09 0.09 0.11 0.15 0.15
0.00 0.00 0.00 0.01 0.02 0.02 0.02 0.02 0.03 0.02 0.03 0.03 0.04 0.04 0.04 0.05 0.05 0.05 0.06 0.04 0.04 0.04 0.02 0.02 0.02 0.04 0.04 0.04 0.04 0.04 0.02 0.01 0.00 0.00 0.00 0.01 0.03 0.07 0.09 0.10 0.11 0.12 0.11
0.00 0.00 0.00 0.00 0.01 0.02 0.01 0.02 0.02 0.03 0.02 0.02 0.03 0.02 0.03 0.04 0.05 0.06 0.05 0.05 0.05 0.04 0.03 0.02 0.03 0.05 0.04 0.03 0.03 0.03 0.03 0.01 0.00 0.01 0.01 0.02 0.05 0.08 0.11 0.14 0.14 0.12 0.11
0.00 0.00 0.00 0.00 0.00 0.00 0.01 0.01 0.01 0.02 0.02 0.02 0.02 0.02 0.02 0.02 0.03 0.04 0.04 0.05 0.05 0.04 0.03 0.02 0.04 0.05 0.03 0.02 0.02 0.02 0.01 0.02 0.01 0.01 0.02 0.05 0.09 0.10 0.12 0.15 0.14 0.11 0.11
0.00 0.00 0.00 0.00 0.00 0.00 0.00 0.01 0.01 0.02 0.02 0.01 0.01 0.01 0.01 0.01 0.01 0.02 0.02 0.04 0.05 0.04 0.03 0.03 0.04 0.03 0.02 0.01 0.01 0.01 0.01 0.05 0.04 0.01 0.01 0.05 0.12 0.17 0.14 0.15 0.16 0.15 0.12
0.00 0.00 0.00 0.00 0.00 0.01 0.01 0.01 0.01 0.00 0.01 0.00 0.00 0.00 0.01 0.01 0.01 0.01 0.01 0.04 0.04 0.04 0.05 0.06 0.05 0.03 0.01 0.01 0.01 0.01 0.01 0.02 0.02 0.02 0.02 0.05 0.11 0.21 0.24 0.25 0.22 0.19 0.16
0.00 0.00 0.00 0.00 0.00 0.01 0.01 0.01 0.01 0.01 0.01 0.00 0.00 0.00 0.00 0.01 0.00 0.01 0.01 0.02 0.02 0.02 0.03 0.04 0.04 0.03 0.01 0.02 0.01 0.01 0.01 0.02 0.03 0.04 0.04 0.05 0.08 0.12 0.20 0.25 0.22 0.20 0.18
0.00 0.00 0.00 0.00 0.00 0.00 0.01 0.01 0.00 0.00 0.00 0.00 0.00 0.00 0.00 0.00 0.00 0.00 0.00 0.01 0.01 0.01 0.02 0.04 0.04 0.02 0.01 0.01 0.01 0.01 0.01 0.02 0.05 0.06 0.06 0.06 0.07 0.06 0.10 0.18 0.20 0.23 0.21
0.00 0.00 0.00 0.00 0.01 0.00 0.00 0.00 0.00 0.00 0.00 0.01 0.00 0.00 0.00 0.00 0.00 0.00 0.00 0.00 0.01 0.00 0.01 0.03 0.04 0.02 0.01 0.01 0.00 0.01 0.01 0.02 0.04 0.03 0.04 0.06 0.05 0.04 0.05 0.09 0.16 0.22 0.24
0.00 0.00 0.00 0.01 0.01 0.01 0.01 0.01 0.00 0.00 0.00 0.01 0.01 0.00 0.00 0.00 0.00 0.00 0.00 0.00 0.00 0.01 0.02 0.02 0.04 0.03 0.01 0.01 0.02 0.01 0.01 0.01 0.02 0.02 0.02 0.03 0.02 0.02 0.04 0.07 0.12 0.15 0.17
0.01 0.01 0.01 0.01 0.01 0.01 0.01 0.01 0.00 0.00 0.00 0.00 0.01 0.00 0.00 0.00 0.00 0.00 0.01 0.01 0.00 0.01 0.02 0.03 0.06 0.07 0.02 0.04 0.04 0.03 0.02 0.02 0.02 0.02 0.02 0.02 0.02 0.03 0.04 0.06 0.11 0.18 0.23
0.02 0.03 0.03 0.02 0.01 0.01 0.01 0.01 0.01 0.01 0.00 0.00 0.00 0.00 0.00 0.00 0.01 0.01 0.01 0.01 0.01 0.01 0.03 0.05 0.10 0.16 0.09 0.07 0.07 0.06 0.04 0.04 0.04 0.04 0.04 0.03 0.02 0.02 0.03 0.05 0.10 0.19 0.28
0.03 0.04 0.04 0.03 0.02 0.02 0.01 0.01 0.01 0.01 0.01 0.01 0.00 0.00 0.01 0.01 0.01 0.01 0.01 0.01 0.01 0.03 0.05 0.07 0.09 0.18 0.19 0.11 0.08 0.07 0.06 0.05 0.05 0.06 0.05 0.02 0.01 0.01 0.02 0.04 0.07 0.14 0.23
0.04 0.04 0.03 0.04 0.04 0.03 0.02 0.01 0.00 0.01 0.01 0.01 0.01 0.01 0.02 0.01 0.01 0.01 0.01 0.00 0.01 0.02 0.05 0.08 0.09 0.14 0.23 0.18 0.11 0.09 0.06 0.05 0.06 0.05 0.03 0.02 0.02 0.02 0.02 0.03 0.04 0.11 0.21
0.03 0.04 0.03 0.03 0.04 0.04 0.03 0.02 0.01 0.01 0.01 0.02 0.02 0.02 0.02 0.01 0.01 0.01 0.01 0.00 0.00 0.02 0.03 0.06 0.08 0.10 0.19 0.19 0.13 0.10 0.07 0.05 0.05 0.05 0.04 0.02 0.03 0.04 0.04 0.03 0.04 0.10 0.19
0.03 0.03 0.03 0.03 0.03 0.04 0.04 0.05 0.04 0.04 0.02 0.02 0.02 0.01 0.01 0.01 0.01 0.01 0.00 0.00 0.00 0.01 0.02 0.03 0.06 0.08 0.11 0.13 0.11 0.09 0.08 0.06 0.05 0.05 0.04 0.03 0.02 0.03 0.04 0.05 0.05 0.07 0.13
0.02 0.03 0.03 0.03 0.03 0.03 0.03 0.05 0.06 0.07 0.05 0.03 0.02 0.01 0.01 0.01 0.01 0.01 0.00 0.00 0.00 0.00 0.01 0.01 0.03 0.06 0.08 0.09 0.09 0.06 0.06 0.06 0.06 0.06 0.04 0.03 0.02 0.02 0.02 0.04 0.04 0.03 0.03
0.02 0.04 0.03 0.03 0.03 0.02 0.02 0.03 0.04 0.06 0.07 0.05 0.03 0.02 0.02 0.01 0.01 0.01 0.00 0.00 0.00 0.00 0.00 0.01 0.01 0.02 0.04 0.06 0.06 0.05 0.05 0.06 0.05 0.05 0.04 0.04 0.02 0.01 0.01 0.01 0.02 0.01 0.02
0.02 0.03 0.02 0.02 0.03 0.03 0.03 0.03 0.03 0.04 0.04 0.06 0.07 0.05 0.04 0.02 0.02 0.01 0.00 0.00 0.00 0.00 0.00 0.00 0.00 0.00 0.01 0.02 0.03 0.04 0.05 0.05 0.04 0.03 0.03 0.03 0.03 0.02 0.01 0.01 0.02 0.01 0.01
0.02 0.02 0.02 0.01 0.02 0.02 0.02 0.03 0.03 0.03 0.04 0.05 0.05 0.06 0.05 0.04 0.03 0.02 0.01 0.00 0.00 0.00 0.00 0.00 0.00 0.00 0.00 0.00 0.01 0.01 0.02 0.03 0.03 0.02 0.02 0.02 0.02 0.03 0.02 0.02 0.02 0.01 0.01
MSLP
1014.22 1013.51 1012.90 1012.45 1012.18 1012.07 1012.09 1012.18 1012.30 1012.41 1012.51 1012.59 1012.68 1012.80 1012.97 1013.18 1013.42 1013.67 1013.91 1014.11 1014.25 1014.36 1014.43 1014.48 1014.54 1014.61 1014.70 1014.81 1014.93 1015.05 1015.15 1015.23 1015.29 1015.34 1015.37 1015.39 1015.40 1015.41 1015.41 1015.42 1015.43 1015.44 1015.47
1014.22 1013.54 1012.96 1012.53 1012.27 1012.17 1012.19 1012.28 1012.41 1012.54 1012.65 1012.76 1012.89 1013.04 1013.24 1013.48 1013.75 1014.02 1014.26 1014.46 1014.61 1014.71 1014.77 1014.81 1014.84 1014.88 1014.93 1014.99 1015.06 1015.13 1015.19 1015.26 1015.32 1015.38 1015.45 1015.51 1015.56 1015.60 1015.62 1015.62 1015.62 1015.62 1015.64
1014.06 1013.44 1012.92 1012.53 1012.31 1012.25 1012.30 1012.42 1012.58 1012.73 1012.87 1013.00 1013.15 1013.32 1013.53 1013.77 1014.02 1014.28 1014.50 1014.68 1014.81 1014.90 1014.96 1015.00 1015.03 1015.05 1015.08 1015.11 1015.14 1015.17 1015.21 1015.26 1015.32 1015.41 1015.50 1015.60 1015.69 1015.76 1015.80 1015.81 1015.80 1015.80 1015.80
1013.79 1013.26 1012.81 1012.51 1012.36 1012.36 1012.46 1012.62 1012.81 1012.98 1013.14 1013.28 1013.43 1013.60 1013.79 1014.00 1014.21 1014.42 1014.61 1014.76 1014.87 1014.95 1015.01 1015.06 1015.11 1015.15 1015.18 1015.20 1015.21 1015.22 1015.24 1015.28 1015.34 1015.44 1015.56 1015.69 1015.80 1015.89 1015.94 1015.96 1015.95 1015.93 1015.92
1013.53 1013.08 1012.73 1012.52 1012.46 1012.53 1012.69 1012.89 1013.10 1013.29 1013.45 1013.58 1013.72 1013.85 1014.01 1014.17 1014.34 1014.49 1014.63 1014.74 1014.83 1014.91 1014.98 1015.06 1015.13 1015.20 1015.25 1015.28 1015.30 1015.30 1015.31 1015.34 1015.40 1015.50 1015.62 1015.76 1015.88 1015.98 1016.03 1016.04 1016.02 1016.00 1015.99
1013.36 1013.01 1012.76 1012.64 1012.67 1012.80 1013.00 1013.22 1013.43 1013.61 1013.75 1013.86 1013.97 1014.08 1014.19 1014.31 1014.42 1014.53 1014.62 1014.70 1014.77 1014.85 1014.94 1015.05 1015.16 1015.27 1015.35 1015.41 1015.43 1015.44 1015.44 1015.46 1015.50 1015.59 1015.70 1015.82 1015.93 1016.01 1016.05 1016.04 1016.01 1015.97 1015.96
1013.37 1013.09 1012.93 1012.89 1012.98 1013.15 1013.36 1013.58 1013.76 1013.91 1014.02 1014.10 1014.18 1014.26 1014.35 1014.44 1014.52 1014.60 1014.66 1014.71 1014.77 1014.85 1014.96 1015.09 1015.23 1015.37 1015.50 1015.58 1015.62 1015.63 1015.62 1015.62 1015.64 1015.69 1015.77 1015.86 1015.93 1015.98 1015.99 1015.96 1015.91 1015.86 1015.84
1013.56 1013.35 1013.25 1013.27 1013.39 1013.57 1013.76 1013.93 1014.07 1014.16 1014.23 1014.28 1014.34 1014.42 1014.50 1014.59 1014.68 1014.74 1014.79 1014.83 1014.88 1014.95 1015.06 1015.21 1015.37 1015.54 1015.68 1015.79 1015.84 1015.85 1015.84 1015.81 1015.80 1015.80 1015.83 1015.87 1015.90 1015.90 1015.87 1015.81 1015.74 1015.68 1015.66
1013.88 1013.73 1013.68 1013.74 1013.86 1014.01 1014.16 1014.27 1014.33 1014.37 1014.39 1014.42 1014.48 1014.57 1014.68 1014.79 1014.90 1014.98 1015.03 1015.07 1015.11 1015.17 1015.27 1015.40 1015.57 1015.74 1015.89 1016.00 1016.06 1016.07 1016.04 1016.00 1015.95 1015.91 1015.88 1015.86 1015.84 1015.79 1015.72 1015.64 1015.56 1015.50 1015.48
1014.25 1014.15 1014.15 1014.22 1014.34 1014.45 1014.53 1014.57 1014.56 1014.54 1014.52 1014.54 1014.61 1014.72 1014.88 1015.04 1015.18 1015.28 1015.35 1015.38 1015.41 1015.45 1015.53 1015.64 1015.79 1015.95 1016.09 1016.20 1016.26 1016.26 1016.22 1016.16 1016.08 1016.00 1015.92 1015.85 1015.78 1015.70 1015.61 1015.52 1015.43 1015.38 1015.38
1014.56 1014.52 1014.57 1014.66 1014.76 1014.84 1014.87 1014.84 1014.77 1014.70 1014.65 1014.66 1014.75 1014.90 1015.09 1015.30 1015.48 1015.61 1015.69 1015.73 1015.74 1015.76 1015.80 1015.88 1016.00 1016.13 1016.26 1016.36 1016.41 1016.41 1016.37 1016.29 1016.19 1016.08 1015.97 1015.87 1015.77 1015.66 1015.56 1015.48 1015.41 1015.39 1015.42
1014.74 1014.78 1014.87 1015.00 1015.10 1015.16 1015.15 1015.08 1014.98 1014.87 1014.81 1014.83 1014.93 1015.10 1015.32 1015.56 1015.76 1015.92 1016.01 1016.04 1016.04 1016.04 1016.05 1016.10 1016.18 1016.29 1016.39 1016.48 1016.53 1016.53 1016.48 1016.40 1016.29 1016.17 1016.05 1015.93 1015.82 1015.72 1015.63 1015.56 1015.53 1015.54 1015.61
1014.76 1014.87 1015.03 1015.20 1015.33 1015.40 1015.38 1015.30 1015.19 1015.08 1015.02 1015.04 1015.14 1015.32 1015.55 1015.79 1016.00 1016.16 1016.25 1016.28 1016.28 1016.26 1016.26 1016.28 1016.34 1016.42 1016.51 1016.58 1016.63 1016.63 1016.60 1016.52 1016.42 1016.30 1016.18 1016.07 1015.96 1015.87 1015.80 1015.76 1015.77 1015.83 1015.93
1014.63 1014.81 1015.04 1015.26 1015.43 1015.53 1015.55 1015.49 1015.41 1015.32 1015.27 1015.28 1015.38 1015.54 1015.75 1015.96 1016.16 1016.30 1016.39 1016.43 1016.44 1016.42 1016.42 1016.44 1016.49 1016.56 1016.64 1016.70 1016.75 1016.76 1016.73 1016.67 1016.58 1016.48 1016.37 1016.27 1016.18 1016.11 1016.07 1016.07 1016.11 1016.20 1016.34
1014.42 1014.65 1014.92 1015.18 1015.40 1015.55 1015.62 1015.63 1015.60 1015.55 1015.52 1015.54 1015.62 1015.74 1015.90 1016.07 1016.22 1016.35 1016.44 1016.49 1016.52 1016.54 1016.57 1016.60 1016.66 1016.73 1016.80 1016.86 1016.90 1016.92 1016.90 1016.85 1016.79 1016.70 1016.61 1016.53 1016.46 1016.41 1016.39 1016.42 1016.49 1016.60 1016.76
1014.20 1014.43 1014.71 1014.99 1015.25 1015.45 1015.60 1015.68 1015.72 1015.74 1015.75 1015.77 1015.81 1015.89 1015.99 1016.10 1016.21 1016.32 1016.41 1016.49 1016.57 1016.64 1016.71 1016.79 1016.86 1016.94 1017.01 1017.07 1017.11 1017.12 1017.11 1017.08 1017.03 1016.97 1016.90 1016.83 1016.77 1016.74 1016.73 1016.77 1016.85 1016.97 1017.13
1014.06 1014.24 1014.47 1014.73 1015.00 1015.25 1015.46 1015.63 1015.75 1015.84 1015.89 1015.92 1015.95 1015.97 1016.00 1016.06 1016.13 1016.22 1016.33 1016.45 1016.59 1016.73 1016.86 1016.99 1017.10 1017.19 1017.26 1017.31 1017.34 1017.35 1017.35 1017.33 1017.29 1017.24 1017.19 1017.14 1017.09 1017.06 1017.06 1017.10 1017.17 1017.28 1017.42
1014.05 1014.12 1014.25 1014.45 1014.70 1014.96 1015.22 1015.47 1015.68 1015.84 1015.94 1015.98 1015.99 1015.97 1015.96 1015.96 1015.99 1016.08 1016.21 1016.39 1016.60 1016.81 1017.01 1017.19 1017.34 1017.44 1017.51 1017.56 1017.58 1017.58 1017.58 1017.57 1017.55 1017.52 1017.48 1017.43 1017.39 1017.36 1017.35 1017.38 1017.44 1017.53 1017.64
1014.22 1014.13 1014.13 1014.22 1014.40 1014.65 1014.94 1015.24 1015.52 1015.74 1015.89 1015.96 1015.96 1015.91 1015.85 1015.82 1015.83 1015.92 1016.08 1016.31 1016.58 1016.87 1017.13 1017.36 1017.54 1017.66 1017.73 1017.76 1017.78 1017.78 1017.78 1017.78 1017.78 1017.76 1017.74 1017.70 1017.66 1017.63 1017.61 1017.62 1017.66 1017.73 1017.82
1014.58 1014.31 1014.14 1014.11 1014.19 1014.39 1014.67 1015.00 1015.32 1015.60 1015.79 1015.87 1015.87 1015.81 1015.72 1015.66 1015.66 1015.75 1015.94 1016.21 1016.54 1016.88 1017.19 1017.46 1017.66 1017.79 1017.86 1017.90 1017.91 1017.92 1017.93 1017.96 1017.97 1017.98 1017.97 1017.94 1017.90 1017.86 1017.83 1017.83 1017.86 1017.92 1017.99
1015.13 1014.69 1014.36 1014.18 1014.15 1014.28 1014.52 1014.84 1015.18 1015.48 1015.69 1015.79 1015.78 1015.70 1015.59 1015.50 1015.49 1015.58 1015.78 1016.08 1016.44 1016.81 1017.16 1017.45 1017.67 1017.81 1017.89 1017.93 1017.96 1017.99 1018.03 1018.08 1018.12 1018.15 1018.16 1018.14 1018.10 1018.05 1018.02 1018.01 1018.03 1018.10 1018.18
1015.88 1015.30 1014.82 1014.50 1014.35 1014.39 1014.57 1014.85 1015.17 1015.46 1015.67 1015.76 1015.73 1015.63 1015.49 1015.38 1015.35 1015.42 1015.62 1015.91 1016.28 1016.66 1017.01 1017.31 1017.54 1017.69 1017.79 1017.86 1017.92 1017.98 1018.07 1018.15 1018.23 1018.29 1018.31 1018.29 1018.25 1018.20 1018.16 1018.14 1018.18 1018.25 1018.36
1016.80 1016.12 1015.54 1015.10 1014.85 1014.78 1014.88 1015.10 1015.36 1015.61 1015.78 1015.83 1015.77 1015.63 1015.46 1015.31 1015.24 1015.28 1015.44 1015.71 1016.05 1016.41 1016.76 1017.05 1017.28 1017.45 1017.57 1017.68 1017.79 1017.91 1018.04 1018.17 1018.29 1018.37 1018.40 1018.39 1018.34 1018.28 1018.22 1018.21 1018.25 1018.34 1018.48
1017.86 1017.14 1016.49 1015.98 1015.63 1015.46 1015.47 1015.59 1015.78 1015.95 1016.05 1016.04 1015.93 1015.73 1015.51 1015.31 1015.18 1015.16 1015.27 1015.48 1015.77 1016.09 1016.40 1016.68 1016.91 1017.09 1017.25 1017.41 1017.57 1017.75 1017.94 1018.13 1018.28 1018.39 1018.43 1018.41 1018.34 1018.26 1018.19 1018.16 1018.20 1018.31 1018.48
1018.99 1018.28 1017.61 1017.05 1016.63 1016.38 1016.28 1016.30 1016.38 1016.45 1016.46 1016.38 1016.19 1015.93 1015.64 1015.37 1015.17 1015.08 1015.11 1015.25 1015.46 1015.72 1015.98 1016.22 1016.45 1016.65 1016.84 1017.05 1017.27 1017.52 1017.76 1018.00 1018.19 1018.31 1018.35 1018.32 1018.24 1018.13 1018.04 1017.99 1018.02 1018.13 1018.31
1020.14 1019.47 1018.81 1018.22 1017.76 1017.43 1017.24 1017.16 1017.12 1017.09 1016.99 1016.81 1016.54 1016.20 1015.84 1015.50 1015.22 1015.05 1014.99 1015.03 1015.15 1015.32 1015.52 1015.72 1015.92 1016.13 1016.36 1016.60 1016.88 1017.18 1017.48 1017.75 1017.97 1018.11 1018.15 1018.12 1018.02 1017.89 1017.77 1017.70 1017.71 1017.80 1017.97
Thickness
5763 5767 5769 5770 5770 5771 5771 5771 5772 5772 5773 5773 5774 5774 5775 5776 5776 5777 5777 5777 5779 5780 5779 5777 5777 5777 5776 5776 5776 5775 5775 5774 5774 5773 5773 5773 5773 5772 5772 5771 5770 5770 5770
5765 5767 5768 5768 5769 5769 5769 5770 5770 5771 5771 5771 5771 5771 5772 5773 5773 5773 5774 5774 5775 5776 5776 5774 5774 5774 5774 5773 5773 5772 5772 5772 5771 5770 5770 5770 5770 5770 5769 5769 5768 5768 5768
5765 5766 5766 5767 5767 5768 5768 5768 5768 5769 5769 5769 5769 5769 5769 5770 5770 5770 5771 5771 5771 5772 5771 5771 5771 5771 5770 5770 5770 5769 5769 5769 5768 5768 5768 5767 5767 5767 5767 5767 5766 5766 5766
5764 5764 5765 5765 5765 5766 5766 5766 5766 5766 5766 5766 5766 5766 5767 5767 5767 5767 5768 5768 5768 5768 5768 5768 5768 5767 5767 5766 5766 5766 5766 5766 5765 5765 5764 5764 5764 5764 5764 5764 5764 5764 5763
5762 5763 5763 5763 5763 5763 5764 5764 5763 5763 5763 5764 5764 5764 5764 5764 5765 5765 5765 5765 5765 5765 5765 5764 5764 5764 5763 5763 5763 5762 5762 5762 5762 5761 5761 5761 5761 5761 5762 5762 5762 5761 5761
5760 5760 5760 5761 5761 5761 5761 5761 5761 5760 5760 5761 5761 5761 5761 5761 5762 5762 5762 5762 5762 5762 5761 5761 5761 5761 5760 5760 5760 5759 5758 5758 5758 5758 5758 5758 5758 5759 5759 5759 5759 5758 5758
5757 5758 5758 5758 5758 5758 5758 5758 5758 5758 5758 5757 5757 5758 5758 5759 5759 5759 5759 5759 5759 5758 5758 5758 5757 5757 5757 5756 5756 5755 5755 5754 5754 5755 5755 5755 5755 5756 5756 5756 5756 5755 5754
5755 5755 5755 5755 5755 5755 5755 5755 5755 5755 5755 5754 5754 5754 5755 5755 5755 5755 5756 5756 5756 5755 5755 5754 5754 5754 5753 5753 5752 5752 5751 5751 5751 5751 5752 5752 5752 5752 5753 5753 5752 5752 5750
5752 5752 5751 5752 5751 5752 5752 5752 5751 5751 5751 5751 5751 5751 5751 5751 5751 5752 5752 5752 5752 5752 5751 5751 5750 5750 5749 5749 5748 5748 5748 5747 5748 5748 5749 5748 5749 5749 5750 5750 5749 5748 5747
5748 5748 5748 5748 5748 5748 5748 5748 5747 5747 5747 5747 5747 5747 5747 5747 5747 5748 5748 5748 5748 5748 5747 5747 5746 5746 5745 5744 5744 5744 5743 5744 5744 5745 5745 5745 5746 5747 5747 5746 5745 5744 5743
5743 5744 5744 5744 5744 5744 5744 5744 5743 5743 5743 5743 5743 5742 5743 5743 5743 5743 5744 5744 5744 5743 5743 5742 5742 5741 5740 5740 5739 5739 5739 5739 5739 5740 5740 5741 5742 5743 5743 5743 5742 5741 5740
5738 5740 5741 5741 5741 5741 5740 5740 5739 5739 5738 5738 5738 5738 5738 5738 5738 5738 5739 5739 5739 5738 5738 5738 5737 5736 5735 5734 5734 5734 5734 5734 5734 5735 5735 5737 5737 5738 5738 5738 5738 5738 5737
5737 5737 5738 5738 5738 5737 5737 5736 5735 5735 5734 5734 5734 5734 5734 5734 5734 5734 5734 5734 5734 5733 5733 5732 5731 5730 5730 5729 5729 5728 5728 5729 5729 5729 5730 5732 5733 5733 5733 5733 5733 5733 5734
5735 5735 5736 5736 5735 5734 5733 5733 5732 5731 5731 5730 5730 5730 5731 5730 5729 5729 5728 5728 5728 5728 5727 5727 5726 5725 5725 5724 5724 5723 5723 5723 5723 5724 5725 5726 5727 5728 5728 5728 5728 5728 5728
5733 5734 5734 5734 5733 5732 5731 5730 5729 5728 5728 5727 5727 5727 5727 5726 5725 5725 5724 5724 5723 5723 5723 5722 5721 5720 5720 5719 5718 5718 5718 5718 5718 5719 5719 5721 5722 5722 5722 5722 5722 5722 5721
5732 5732 5733 5732 5731 5730 5728 5727 5726 5726 5725 5724 5724 5724 5724 5723 5722 5721 5721 5720 5719 5719 5718 5717 5716 5715 5715 5714 5713 5713 5712 5713 5713 5713 5714 5715 5715 5716 5716 5716 5716 5716 5716
5731 5732 5731 5731 5730 5728 5726 5725 5724 5723 5722 5722 5721 5721 5721 5720 5719 5718 5717 5716 5716 5715 5714 5713 5712 5711 5710 5709 5708 5707 5707 5707 5707 5707 5708 5708 5709 5709 5710 5710 5710 5710 5710
5731 5730 5730 5730 5727 5725 5724 5723 5722 5721 5720 5719 5719 5719 5718 5717 5716 5715 5714 5713 5712 5712 5710 5709 5707 5706 5704 5703 5702 5702 5701 5701 5701 5701 5701 5702 5702 5702 5703 5703 5704 5704 5704
5730 5729 5727 5727 5725 5723 5722 5721 5719 5718 5717 5716 5716 5716 5715 5715 5714 5713 5711 5710 5709 5708 5706 5705 5703 5701 5699 5698 5697 5696 5696 5695 5695 5695 5695 5695 5695 5695 5696 5696 5697 5698 5698
5728 5727 5725 5724 5723 5721 5719 5717 5715 5714 5713 5713 5713 5713 5713 5712 5711 5710 5708 5706 5705 5704 5702 5701 5698 5697 5695 5694 5694 5691 5690 5690 5689 5689 5689 5689 5689 5689 5689 5689 5689 5690 5691
5723 5722 5721 5720 5719 5717 5715 5712 5710 5708 5709 5709 5709 5709 5709 5709 5708 5707 5705 5703 5702 5700 5698 5697 5695 5692 5690 5689 5687 5684 5684 5684 5683 5683 5683 5683 5682 5682 5682 5682 5682 5682 5682
5719 5718 5718 5717 5716 5715 5713 5712 5709 5708 5706 5706 5706 5706 5706 5705 5704 5704 5702 5700 5698 5696 5694 5693 5691 5687 5685 5684 5681 5677 5673 5674 5676 5677 5677 5677 5676 5676 5676 5676 5676 5675 5675
5715 5715 5715 5714 5713 5712 5711 5709 5706 5704 5702 5700 5700 5701 5702 5702 5701 5700 5699 5697 5695 5693 5691 5690 5688 5686 5681 5679 5678 5674 5668 5665 5665 5669 5670 5670 5670 5669 5669 5669 5669 5669 5668
5712 5712 5712 5711 5710 5708 5707 5705 5703 5699 5696 5696 5696 5696 5697 5697 5697 5696 5695 5694 5692 5690 5688 5687 5686 5684 5681 5676 5673 5671 5669 5666 5662 5660 5662 5663 5663 5663 5662 5663 5663 5663 5663
5709 5708 5707 5706 5705 5704 5703 5701 5699 5696 5695 5693 5692 5692 5691 5692 5692 5691 5691 5690 5688 5687 5685 5684 5681 5680 5678 5674 5670 5667 5664 5661 5659 5656 5654 5655 5655 5656 5656 5656 5657 5657 5656
5703 5702 5701 5700 5699 5699 5698 5697 5696 5693 5691 5689 5687 5686 5686 5686 5686 5686 5686 5685 5684 5683 5682 5680 5678 5676 5674 5671 5668 5665 5662 5659 5655 5652 5649 5648 5648 5649 5650 5650 5650 5650 5650